Weather History for Culpeper, VA

Change the Weather History Date:

Wednesday, January 2, 2013

  Actual Average (KOMH) Record (KOMH)
Temperature  
Mean Temperature 32 °F -  
Max Temperature 39 °F 43 °F 67 °F (1952)
Min Temperature 24 °F 25 °F 2 °F (1968)
Degree Days  
Heating Degree Days 34    
Moisture  
Dew Point 25 °F    
Average Humidity 69    
Maximum Humidity 86    
Minimum Humidity 52    
Precipitation  
Precipitation 0.00 in - - ()
Sea Level Pressure  
Sea Level Pressure 30.11 in    
Wind  
Wind Speed 1 mph (NNE)    
Max Wind Speed 5 mph    
Max Gust Speed -    
Visibility 10 miles    
Events Rain    
Averages and records for this station are not official NWS values.
T = Trace of Precipitation, MM = Missing Value Source: NWS Daily Summary

Daily Weather History Graph

Daily Weather History Graph

Search for Another Location

Airport:

Trip Planner

Search our weather history database for the weather conditions in past years. The results will help you decide how hot, cold, wet, or windy it might be!

Date:

Astronomy

Jan. 02, 2013 Rise Set
Actual Time 7:29 AM EST 5:02 PM EST
Civil Twilight 6:59 AM EST 5:31 PM EST
Nautical Twilight 6:26 AM EST 6:05 PM EST
Astronomical Twilight 5:54 AM EST 6:37 PM EST
Moon 10:28 PM EST (1/2) 10:13 AM EST (1/2)
Length of Visible Light 10h 32m
Length of Day
9h 33m
Waning Gibbous, 75% of the Moon is Illuminated
Jan 2
Waning Gibbous
Jan 4
Last Quarter
Jan 11
New
Jan 18
First Quarter
Jan 26
Full

Hourly Weather History & Observations

Time (EST) Temp. Windchill Dew Point Humidity Pressure Visibility Wind Dir Wind Speed Gust Speed Precip Events Conditions
12:15 AM 39.2 °F - 30.2 °F 70% 30.00 in 10.0 mi Calm Calm - N/A   Overcast
12:35 AM 39.2 °F - 30.2 °F 70% 30.01 in 10.0 mi Calm Calm - N/A   Overcast
12:55 AM 37.4 °F - 32.0 °F 81% 30.01 in 10.0 mi Calm Calm - N/A   Overcast
1:15 AM 37.4 °F - 30.2 °F 75% 30.01 in 10.0 mi Calm Calm - N/A   Overcast
1:35 AM 37.4 °F - 32.0 °F 81% 30.02 in 10.0 mi Calm Calm - N/A   Overcast
1:55 AM 37.4 °F - 30.2 °F 75% 30.02 in 10.0 mi Calm Calm - N/A   Light Drizzle
2:15 AM 37.4 °F 33.8 °F 30.2 °F 75% 30.02 in 10.0 mi NNE 4.6 mph - N/A Rain Light Rain
2:35 AM 37.4 °F 34.9 °F 32.0 °F 81% 30.03 in 10.0 mi North 3.5 mph - N/A   Light Drizzle
2:55 AM 37.4 °F - 32.0 °F 81% 30.03 in 10.0 mi Calm Calm - N/A   Overcast
3:15 AM 37.4 °F - 30.2 °F 75% 30.02 in 10.0 mi Calm Calm - N/A   Overcast
3:35 AM 37.4 °F - 30.2 °F 75% 30.02 in 10.0 mi Calm Calm - N/A   Overcast
3:55 AM 37.4 °F - 30.2 °F 75% 30.01 in 10.0 mi Calm Calm - N/A   Overcast
4:15 AM 37.4 °F - 30.2 °F 75% 30.02 in 10.0 mi Calm Calm - N/A   Overcast
4:35 AM 37.4 °F - 30.2 °F 75% 30.02 in 10.0 mi Calm Calm - N/A   Overcast
4:55 AM 35.6 °F - 30.2 °F 81% 30.03 in 10.0 mi Calm Calm - N/A   Mostly Cloudy
5:15 AM 35.6 °F 32.8 °F 30.2 °F 81% 30.02 in 10.0 mi NNE 3.5 mph - N/A   Mostly Cloudy
5:35 AM 35.6 °F 32.8 °F 26.6 °F 70% 30.02 in 10.0 mi NNE 3.5 mph - N/A   Scattered Clouds
5:55 AM 35.6 °F 32.8 °F 26.6 °F 70% 30.04 in 10.0 mi NNE 3.5 mph - N/A   Mostly Cloudy
6:15 AM 35.6 °F - 26.6 °F 70% 30.04 in 10.0 mi Calm Calm - N/A   Mostly Cloudy
6:35 AM 35.6 °F - 26.6 °F 70% 30.07 in 10.0 mi Calm Calm - N/A   Mostly Cloudy
6:55 AM 35.6 °F - 26.6 °F 70% 30.07 in 10.0 mi Calm Calm - N/A   Mostly Cloudy
7:15 AM 35.6 °F - 26.6 °F 70% 30.08 in 10.0 mi Calm Calm - N/A   Overcast
7:35 AM 35.6 °F - 24.8 °F 65% 30.08 in 10.0 mi Calm Calm - N/A   Mostly Cloudy
7:55 AM 33.8 °F - 26.6 °F 75% 30.10 in 10.0 mi Calm Calm - N/A   Scattered Clouds
8:15 AM 33.8 °F - 26.6 °F 75% 30.10 in 10.0 mi Calm Calm - N/A   Mostly Cloudy
8:35 AM 33.8 °F 29.6 °F 26.6 °F 75% 30.10 in 10.0 mi NNE 4.6 mph - N/A   Overcast
8:55 AM 33.8 °F 29.6 °F 24.8 °F 70% 30.13 in 10.0 mi North 4.6 mph - N/A   Overcast
9:15 AM 35.6 °F 31.7 °F 24.8 °F 65% 30.14 in 10.0 mi North 4.6 mph - N/A   Overcast
9:35 AM 35.6 °F 31.7 °F 24.8 °F 65% 30.13 in 10.0 mi NE 4.6 mph - N/A   Overcast
10:15 AM 35.6 °F - 23.0 °F 60% 30.15 in 10.0 mi Calm Calm - N/A   Scattered Clouds
10:35 AM 35.6 °F 31.7 °F 24.8 °F 65% 30.15 in 10.0 mi NNE 4.6 mph - N/A   Clear
10:55 AM 37.4 °F - 24.8 °F 60% 30.14 in 10.0 mi Calm Calm - N/A   Clear
11:15 AM 37.4 °F 34.9 °F 24.8 °F 60% 30.13 in 10.0 mi NNE 3.5 mph - N/A   Clear
11:35 AM 37.4 °F 34.9 °F 24.8 °F 60% 30.12 in 10.0 mi East 3.5 mph - N/A   Clear
11:55 AM 37.4 °F 34.9 °F 24.8 °F 60% 30.12 in 10.0 mi North 3.5 mph - N/A   Clear
12:15 PM 37.4 °F - 23.0 °F 56% 30.11 in 10.0 mi Calm Calm - N/A   Clear
12:35 PM 39.2 °F 37.0 °F 24.8 °F 56% 30.10 in 10.0 mi NNW 3.5 mph - N/A   Clear
12:55 PM 39.2 °F 35.9 °F 24.8 °F 56% 30.11 in 10.0 mi West 4.6 mph - N/A   Clear
1:15 PM 39.2 °F - 24.8 °F 56% 30.10 in 10.0 mi Calm Calm - N/A   Clear
1:35 PM 39.2 °F - 24.8 °F 56% 30.10 in 10.0 mi Calm Calm - N/A   Clear
1:55 PM 39.2 °F - 23.0 °F 52% 30.10 in 10.0 mi Calm Calm - N/A   Clear
2:15 PM 39.2 °F - 24.8 °F 56% 30.10 in 10.0 mi Calm Calm - N/A   Clear
2:35 PM 39.2 °F - 24.8 °F 56% 30.10 in 10.0 mi Calm Calm - N/A   Clear
2:55 PM 39.2 °F - 24.8 °F 56% 30.10 in 10.0 mi Calm Calm - N/A   Clear
3:15 PM 39.2 °F - 24.8 °F 56% 30.11 in 10.0 mi Calm Calm - N/A   Clear
3:35 PM 39.2 °F - 24.8 °F 56% 30.12 in 10.0 mi Calm Calm - N/A   Clear
3:55 PM 39.2 °F 37.0 °F 23.0 °F 52% 30.13 in 10.0 mi NNE 3.5 mph - N/A   Clear
4:15 PM 37.4 °F 34.9 °F 21.2 °F 52% 30.15 in 10.0 mi NE 3.5 mph - N/A   Clear
4:35 PM 37.4 °F 34.9 °F 21.2 °F 52% 30.14 in 10.0 mi NE 3.5 mph - N/A   Clear
4:55 PM 35.6 °F - 21.2 °F 56% 30.15 in 10.0 mi Calm Calm - N/A   Clear
5:15 PM 35.6 °F 32.8 °F 21.2 °F 56% 30.15 in 10.0 mi NE 3.5 mph - N/A   Clear
5:35 PM 33.8 °F - 19.4 °F 56% 30.17 in 10.0 mi Calm Calm - N/A   Clear
5:55 PM 32.0 °F - 19.4 °F 60% 30.17 in 10.0 mi Calm Calm - N/A   Clear
6:15 PM 28.4 °F 24.6 °F 21.2 °F 74% 30.18 in 10.0 mi East 3.5 mph - N/A   Clear
6:35 PM 30.2 °F - 19.4 °F 64% 30.18 in 10.0 mi Calm Calm - N/A   Clear
6:55 PM 30.2 °F - 19.4 °F 64% 30.18 in 10.0 mi Calm Calm - N/A   Clear
7:15 PM 28.4 °F - 19.4 °F 69% 30.19 in 10.0 mi Calm Calm - N/A   Clear
7:35 PM 28.4 °F - 21.2 °F 74% 30.20 in 10.0 mi Calm Calm - N/A   Clear
7:55 PM 26.6 °F - 23.0 °F 86% 30.19 in 10.0 mi Calm Calm - N/A   Clear
8:15 PM 28.4 °F - 21.2 °F 74% 30.20 in 10.0 mi Calm Calm - N/A   Clear
8:35 PM 28.4 °F - 24.8 °F 86% 30.20 in 10.0 mi Calm Calm - N/A   Clear
8:55 PM 28.4 °F - 23.0 °F 80% 30.21 in 10.0 mi Calm Calm - N/A   Clear
9:15 PM 28.4 °F - 21.2 °F 74% 30.21 in 10.0 mi Calm Calm - N/A   Clear
9:35 PM 28.4 °F - 23.0 °F 80% 30.22 in 10.0 mi Calm Calm - N/A   Clear
9:55 PM 28.4 °F - 21.2 °F 74% 30.23 in 10.0 mi Calm Calm - N/A   Clear
10:15 PM 26.6 °F - 21.2 °F 80% 30.23 in 10.0 mi Calm Calm - N/A   Clear
10:35 PM 26.6 °F - 21.2 °F 80% 30.22 in 10.0 mi Calm Calm - N/A   Clear
10:55 PM 26.6 °F - 19.4 °F 74% 30.22 in 10.0 mi Calm Calm - N/A   Clear
11:15 PM 26.6 °F - 21.2 °F 80% 30.23 in 10.0 mi Calm Calm - N/A   Clear
11:35 PM 24.8 °F - 21.2 °F 86% 30.22 in 10.0 mi Calm Calm - N/A   Clear
11:55 PM 26.6 °F - 21.2 °F 80% 30.23 in 10.0 mi Calm Calm - N/A   Clear